Location: Holyhead Bay
(53.3667°N, 4.6667°W)
Time: 06:40:01
(UTC+00:00)

ADEOS Rocket - Pass Details

Date: 25 April 2021
Orbit: 859 x 1306 km, 98.7° (Epoch: 12 May)

Event Time Altitude Azimuth Distance (km) Brightness Sun altitude
Rises 00:51:26 0° 114° (ESE) 3,916 6.0 -23.0°
Reaches altitude 10° 00:54:19 10° 102° (ESE) 3,029 5.5 -22.9°
Maximum altitude 00:59:54 27° 49° (NE) 2,144 5.3 -22.8°
Drops below altitude 10° 01:05:52 10° 356° (N) 3,258 6.7 -22.6°
Sets 01:09:04 0° 345° (NNW) 4,269 7.4 -22.5°
